QPF
0.00 0.00 0.00 0.00 0.00 0.00 0.00 0.00 0.00 0.00 0.00 0.00 0.00 0.00 0.00 0.00 0.00 0.00 0.00 0.00 0.00 0.00 0.00 0.00 0.00 0.00 0.00 0.00 0.00 0.00 0.00 0.00 0.00 0.00 0.00 0.00 0.00 0.00 0.00 0.00 0.00 0.00 0.00 0.00 0.00 0.00 0.00 0.00 0.00 0.00 0.00 0.00 0.00 0.00 0.00 0.00 0.00 0.00 0.01 0.01 0.01 0.01 0.01 0.02 0.02 0.02 0.02 0.02 0.02
0.00 0.00 0.00 0.00 0.00 0.00 0.00 0.00 0.00 0.00 0.00 0.00 0.00 0.00 0.00 0.00 0.00 0.00 0.00 0.00 0.00 0.00 0.00 0.00 0.00 0.00 0.00 0.00 0.00 0.00 0.00 0.00 0.00 0.00 0.00 0.00 0.00 0.00 0.00 0.00 0.00 0.00 0.00 0.00 0.00 0.00 0.00 0.00 0.00 0.00 0.00 0.00 0.00 0.00 0.00 0.00 0.00 0.00 0.01 0.01 0.01 0.01 0.01 0.02 0.02 0.02 0.02 0.02 0.02
0.00 0.00 0.00 0.00 0.00 0.00 0.00 0.00 0.00 0.00 0.00 0.00 0.00 0.00 0.00 0.00 0.00 0.00 0.00 0.00 0.00 0.00 0.00 0.00 0.00 0.00 0.00 0.00 0.00 0.00 0.00 0.00 0.00 0.00 0.00 0.00 0.00 0.00 0.00 0.00 0.00 0.00 0.00 0.00 0.00 0.00 0.00 0.00 0.00 0.00 0.00 0.00 0.00 0.00 0.00 0.00 0.00 0.00 0.01 0.01 0.01 0.01 0.02 0.02 0.02 0.02 0.02 0.02 0.02
0.00 0.00 0.00 0.00 0.00 0.00 0.00 0.00 0.00 0.00 0.00 0.00 0.00 0.00 0.00 0.00 0.00 0.00 0.00 0.00 0.00 0.00 0.00 0.00 0.00 0.00 0.00 0.00 0.00 0.00 0.00 0.00 0.00 0.00 0.00 0.00 0.00 0.00 0.00 0.00 0.00 0.00 0.00 0.00 0.00 0.00 0.00 0.00 0.00 0.00 0.00 0.00 0.00 0.00 0.00 0.00 0.00 0.00 0.01 0.01 0.01 0.01 0.01 0.02 0.02 0.02 0.02 0.02 0.02
0.00 0.00 0.00 0.00 0.00 0.00 0.00 0.00 0.00 0.00 0.00 0.00 0.00 0.00 0.00 0.00 0.00 0.00 0.00 0.00 0.00 0.00 0.00 0.00 0.00 0.00 0.00 0.00 0.00 0.00 0.00 0.00 0.00 0.00 0.00 0.00 0.00 0.00 0.00 0.00 0.00 0.00 0.00 0.00 0.00 0.00 0.00 0.00 0.00 0.00 0.00 0.00 0.00 0.00 0.00 0.00 0.00 0.00 0.01 0.01 0.01 0.01 0.02 0.02 0.02 0.02 0.02 0.02 0.02
0.00 0.00 0.00 0.00 0.00 0.00 0.00 0.00 0.00 0.00 0.00 0.00 0.00 0.00 0.00 0.00 0.00 0.00 0.00 0.00 0.00 0.00 0.00 0.00 0.00 0.00 0.00 0.00 0.00 0.00 0.00 0.00 0.00 0.00 0.00 0.00 0.00 0.00 0.00 0.00 0.00 0.00 0.00 0.00 0.00 0.00 0.00 0.00 0.00 0.00 0.00 0.00 0.00 0.01 0.00 0.00 0.00 0.01 0.01 0.01 0.01 0.01 0.02 0.02 0.02 0.02 0.02 0.02 0.02
0.00 0.00 0.00 0.00 0.00 0.00 0.00 0.00 0.00 0.00 0.00 0.00 0.00 0.00 0.00 0.00 0.00 0.00 0.00 0.00 0.00 0.00 0.00 0.00 0.00 0.00 0.00 0.00 0.00 0.00 0.00 0.00 0.00 0.00 0.00 0.00 0.00 0.00 0.00 0.00 0.00 0.00 0.00 0.00 0.00 0.00 0.00 0.00 0.00 0.00 0.00 0.00 0.00 0.00 0.00 0.00 0.00 0.01 0.01 0.01 0.01 0.01 0.01 0.02 0.02 0.02 0.03 0.03 0.02
0.00 0.00 0.00 0.00 0.00 0.00 0.00 0.00 0.00 0.00 0.00 0.00 0.00 0.00 0.00 0.00 0.00 0.00 0.00 0.00 0.00 0.00 0.00 0.00 0.00 0.00 0.00 0.00 0.00 0.00 0.00 0.00 0.00 0.00 0.00 0.00 0.00 0.00 0.00 0.00 0.00 0.00 0.00 0.00 0.00 0.00 0.00 0.00 0.00 0.00 0.00 0.00 0.00 0.00 0.00 0.00 0.01 0.01 0.01 0.01 0.01 0.01 0.01 0.02 0.02 0.02 0.02 0.02 0.03
0.00 0.00 0.00 0.00 0.00 0.00 0.00 0.00 0.00 0.00 0.00 0.00 0.00 0.00 0.00 0.00 0.00 0.00 0.00 0.00 0.00 0.00 0.00 0.00 0.00 0.00 0.00 0.00 0.00 0.00 0.00 0.00 0.00 0.00 0.00 0.00 0.00 0.00 0.00 0.00 0.00 0.00 0.00 0.00 0.00 0.00 0.00 0.00 0.00 0.00 0.00 0.00 0.00 0.00 0.00 0.00 0.01 0.01 0.01 0.01 0.01 0.01 0.02 0.02 0.02 0.02 0.02 0.03 0.03
0.00 0.00 0.00 0.00 0.00 0.00 0.00 0.00 0.00 0.00 0.00 0.00 0.00 0.00 0.00 0.00 0.00 0.00 0.00 0.00 0.00 0.00 0.00 0.00 0.00 0.00 0.00 0.00 0.00 0.00 0.00 0.00 0.00 0.00 0.00 0.00 0.00 0.00 0.00 0.00 0.00 0.00 0.00 0.00 0.00 0.00 0.00 0.00 0.00 0.00 0.00 0.00 0.01 0.01 0.01 0.01 0.01 0.01 0.01 0.01 0.02 0.02 0.02 0.02 0.02 0.02 0.02 0.03 0.03
0.00 0.00 0.00 0.00 0.00 0.00 0.00 0.00 0.00 0.00 0.00 0.00 0.00 0.00 0.00 0.00 0.00 0.00 0.00 0.00 0.00 0.00 0.00 0.00 0.00 0.00 0.00 0.00 0.00 0.00 0.00 0.00 0.00 0.00 0.00 0.00 0.00 0.00 0.00 0.00 0.00 0.00 0.00 0.00 0.00 0.00 0.00 0.00 0.00 0.01 0.01 0.01 0.01 0.01 0.01 0.01 0.01 0.01 0.01 0.01 0.01 0.02 0.02 0.01 0.02 0.02 0.02 0.03 0.03
0.00 0.00 0.00 0.00 0.00 0.00 0.00 0.00 0.00 0.00 0.00 0.00 0.00 0.00 0.00 0.00 0.00 0.00 0.00 0.00 0.00 0.00 0.00 0.00 0.00 0.00 0.00 0.00 0.00 0.00 0.00 0.00 0.00 0.00 0.00 0.00 0.00 0.00 0.00 0.00 0.00 0.00 0.00 0.00 0.00 0.00 0.00 0.00 0.00 0.01 0.01 0.00 0.00 0.01 0.01 0.01 0.01 0.02 0.02 0.02 0.02 0.02 0.02 0.02 0.02 0.02 0.02 0.03 0.03
0.00 0.00 0.00 0.00 0.00 0.00 0.00 0.00 0.00 0.00 0.00 0.00 0.00 0.00 0.00 0.00 0.00 0.00 0.00 0.00 0.00 0.00 0.00 0.00 0.00 0.00 0.00 0.00 0.00 0.00 0.00 0.00 0.00 0.00 0.00 0.00 0.00 0.00 0.00 0.00 0.00 0.00 0.00 0.00 0.00 0.00 0.00 0.00 0.00 0.01 0.01 0.00 0.00 0.01 0.01 0.01 0.01 0.01 0.02 0.02 0.02 0.02 0.02 0.02 0.02 0.02 0.02 0.03 0.03
0.00 0.00 0.00 0.00 0.00 0.00 0.00 0.00 0.00 0.00 0.00 0.00 0.00 0.00 0.00 0.00 0.00 0.00 0.00 0.00 0.00 0.00 0.00 0.00 0.00 0.00 0.00 0.00 0.00 0.00 0.00 0.00 0.00 0.00 0.00 0.00 0.00 0.00 0.00 0.00 0.00 0.00 0.00 0.00 0.00 0.00 0.00 0.00 0.00 0.01 0.01 0.01 0.01 0.01 0.01 0.01 0.01 0.01 0.02 0.02 0.02 0.02 0.02 0.02 0.02 0.02 0.02 0.03 0.03
0.00 0.00 0.00 0.00 0.00 0.00 0.00 0.00 0.00 0.00 0.00 0.00 0.00 0.00 0.00 0.00 0.00 0.00 0.00 0.00 0.00 0.00 0.00 0.00 0.00 0.00 0.00 0.00 0.00 0.00 0.00 0.00 0.00 0.00 0.00 0.00 0.00 0.00 0.00 0.00 0.00 0.00 0.00 0.00 0.00 0.00 0.00 0.00 0.00 0.00 0.01 0.01 0.01 0.01 0.01 0.01 0.01 0.01 0.02 0.02 0.02 0.02 0.02 0.02 0.02 0.02 0.03 0.03 0.04
0.00 0.00 0.00 0.00 0.00 0.00 0.00 0.00 0.00 0.00 0.00 0.00 0.00 0.00 0.00 0.00 0.00 0.00 0.00 0.00 0.00 0.00 0.00 0.00 0.00 0.00 0.00 0.00 0.00 0.00 0.00 0.00 0.00 0.00 0.00 0.00 0.00 0.00 0.00 0.00 0.00 0.00 0.00 0.00 0.00 0.00 0.00 0.00 0.00 0.00 0.01 0.01 0.01 0.01 0.01 0.01 0.01 0.01 0.02 0.02 0.02 0.02 0.02 0.02 0.02 0.02 0.03 0.03 0.04
0.00 0.00 0.00 0.00 0.00 0.00 0.00 0.00 0.00 0.00 0.00 0.00 0.00 0.00 0.00 0.00 0.00 0.00 0.00 0.00 0.00 0.00 0.00 0.00 0.00 0.00 0.00 0.00 0.00 0.00 0.00 0.00 0.00 0.00 0.00 0.00 0.00 0.00 0.00 0.00 0.00 0.00 0.00 0.00 0.00 0.00 0.00 0.00 0.00 0.00 0.01 0.01 0.01 0.01 0.01 0.01 0.01 0.02 0.02 0.02 0.02 0.02 0.02 0.02 0.02 0.02 0.03 0.03 0.03
0.00 0.00 0.00 0.00 0.00 0.00 0.00 0.00 0.00 0.00 0.00 0.00 0.00 0.00 0.00 0.00 0.00 0.00 0.00 0.00 0.00 0.00 0.00 0.00 0.00 0.00 0.00 0.00 0.00 0.00 0.00 0.00 0.00 0.00 0.00 0.00 0.00 0.00 0.00 0.00 0.00 0.00 0.00 0.00 0.00 0.00 0.00 0.00 0.00 0.00 0.00 0.01 0.01 0.01 0.01 0.01 0.02 0.02 0.02 0.02 0.02 0.02 0.02 0.02 0.02 0.02 0.02 0.03 0.03
0.00 0.00 0.00 0.00 0.00 0.00 0.00 0.00 0.00 0.00 0.00 0.00 0.00 0.00 0.00 0.00 0.00 0.00 0.00 0.00 0.00 0.00 0.00 0.00 0.00 0.00 0.00 0.00 0.00 0.00 0.00 0.00 0.00 0.00 0.00 0.00 0.00 0.00 0.00 0.00 0.00 0.00 0.00 0.00 0.00 0.00 0.00 0.00 0.00 0.00 0.00 0.01 0.01 0.01 0.01 0.01 0.02 0.02 0.02 0.02 0.02 0.02 0.02 0.02 0.02 0.02 0.02 0.03 0.03
0.00 0.00 0.00 0.00 0.00 0.00 0.00 0.00 0.00 0.00 0.00 0.00 0.00 0.00 0.00 0.00 0.00 0.00 0.00 0.00 0.00 0.00 0.00 0.00 0.00 0.00 0.00 0.00 0.00 0.00 0.00 0.00 0.00 0.00 0.00 0.00 0.00 0.00 0.00 0.00 0.00 0.00 0.00 0.00 0.00 0.00 0.00 0.00 0.00 0.00 0.01 0.01 0.01 0.01 0.01 0.01 0.02 0.02 0.02 0.02 0.02 0.02 0.01 0.01 0.01 0.01 0.02 0.02 0.03
0.00 0.00 0.00 0.00 0.00 0.00 0.00 0.00 0.00 0.00 0.00 0.00 0.00 0.00 0.00 0.00 0.00 0.00 0.00 0.00 0.00 0.00 0.00 0.00 0.00 0.00 0.00 0.00 0.00 0.00 0.00 0.00 0.00 0.00 0.00 0.00 0.00 0.00 0.00 0.00 0.00 0.00 0.00 0.00 0.00 0.00 0.00 0.00 0.01 0.01 0.01 0.01 0.01 0.01 0.01 0.01 0.02 0.01 0.02 0.01 0.01 0.01 0.01 0.01 0.01 0.01 0.01 0.02 0.02
0.00 0.00 0.00 0.00 0.00 0.00 0.00 0.00 0.00 0.00 0.00 0.00 0.00 0.00 0.00 0.00 0.00 0.00 0.00 0.00 0.00 0.00 0.00 0.00 0.00 0.00 0.00 0.00 0.00 0.00 0.00 0.00 0.00 0.00 0.00 0.00 0.00 0.00 0.00 0.00 0.00 0.00 0.00 0.00 0.00 0.00 0.00 0.01 0.01 0.01 0.01 0.02 0.02 0.02 0.02 0.02 0.02 0.02 0.01 0.01 0.01 0.01 0.01 0.01 0.01 0.01 0.01 0.01 0.01
0.00 0.00 0.00 0.00 0.00 0.00 0.00 0.00 0.00 0.00 0.00 0.00 0.00 0.00 0.00 0.00 0.00 0.00 0.00 0.00 0.00 0.00 0.00 0.00 0.00 0.00 0.00 0.00 0.00 0.00 0.00 0.00 0.00 0.00 0.00 0.00 0.00 0.00 0.00 0.00 0.00 0.00 0.00 0.00 0.00 0.01 0.01 0.01 0.01 0.02 0.02 0.02 0.03 0.03 0.03 0.03 0.03 0.02 0.02 0.02 0.01 0.02 0.02 0.02 0.02 0.01 0.01 0.01 0.01
0.00 0.00 0.00 0.00 0.00 0.00 0.00 0.00 0.00 0.00 0.00 0.00 0.00 0.00 0.00 0.00 0.00 0.00 0.00 0.00 0.00 0.00 0.00 0.00 0.00 0.00 0.00 0.00 0.00 0.00 0.00 0.00 0.00 0.00 0.00 0.00 0.00 0.00 0.00 0.00 0.00 0.00 0.00 0.00 0.00 0.01 0.01 0.01 0.02 0.03 0.04 0.04 0.05 0.05 0.04 0.04 0.04 0.04 0.04 0.04 0.03 0.03 0.04 0.03 0.03 0.02 0.03 0.03 0.02
0.00 0.00 0.00 0.00 0.00 0.00 0.00 0.00 0.00 0.00 0.00 0.00 0.00 0.00 0.00 0.00 0.00 0.00 0.00 0.00 0.00 0.00 0.00 0.00 0.00 0.00 0.00 0.00 0.00 0.00 0.00 0.00 0.00 0.00 0.00 0.00 0.00 0.00 0.00 0.00 0.00 0.00 0.00 0.00 0.00 0.01 0.01 0.02 0.03 0.04 0.05 0.06 0.07 0.07 0.07 0.06 0.06 0.06 0.07 0.07 0.07 0.06 0.06 0.04 0.04 0.03 0.04 0.04 0.04
0.00 0.00 0.00 0.00 0.00 0.00 0.00 0.00 0.00 0.00 0.00 0.00 0.00 0.00 0.00 0.00 0.00 0.00 0.00 0.00 0.00 0.00 0.00 0.00 0.00 0.00 0.00 0.00 0.00 0.00 0.00 0.00 0.00 0.00 0.00 0.00 0.00 0.00 0.00 0.00 0.00 0.00 0.00 0.00 0.01 0.01 0.01 0.02 0.03 0.05 0.06 0.09 0.09 0.09 0.09 0.08 0.07 0.08 0.08 0.08 0.07 0.06 0.06 0.05 0.04 0.04 0.03 0.03 0.04
0.00 0.00 0.00 0.00 0.00 0.00 0.00 0.00 0.00 0.00 0.00 0.00 0.00 0.00 0.00 0.00 0.00 0.00 0.00 0.00 0.00 0.00 0.00 0.00 0.00 0.00 0.00 0.00 0.00 0.00 0.00 0.00 0.00 0.00 0.00 0.00 0.00 0.00 0.00 0.00 0.00 0.00 0.00 0.01 0.01 0.01 0.02 0.02 0.04 0.05 0.06 0.09 0.13 0.13 0.12 0.11 0.08 0.07 0.07 0.07 0.05 0.04 0.04 0.04 0.03 0.03 0.02 0.02 0.03
0.00 0.00 0.00 0.00 0.00 0.00 0.00 0.00 0.00 0.00 0.00 0.00 0.00 0.00 0.00 0.00 0.00 0.00 0.00 0.00 0.00 0.00 0.00 0.00 0.00 0.00 0.00 0.00 0.00 0.00 0.00 0.00 0.00 0.00 0.00 0.00 0.00 0.00 0.00 0.00 0.00 0.00 0.00 0.01 0.01 0.02 0.02 0.03 0.04 0.06 0.07 0.08 0.12 0.13 0.11 0.10 0.07 0.06 0.05 0.05 0.05 0.04 0.04 0.04 0.03 0.03 0.03 0.02 0.02
0.00 0.00 0.00 0.00 0.00 0.00 0.00 0.00 0.00 0.00 0.00 0.00 0.00 0.00 0.00 0.00 0.00 0.00 0.00 0.00 0.00 0.00 0.00 0.00 0.00 0.00 0.00 0.00 0.00 0.00 0.00 0.00 0.00 0.00 0.00 0.00 0.00 0.00 0.00 0.01 0.00 0.00 0.01 0.01 0.02 0.02 0.03 0.04 0.04 0.05 0.05 0.06 0.09 0.11 0.11 0.07 0.06 0.05 0.05 0.04 0.05 0.05 0.05 0.05 0.04 0.04 0.04 0.04 0.03
0.00 0.00 0.00 0.00 0.00 0.00 0.00 0.00 0.00 0.00 0.00 0.00 0.00 0.00 0.00 0.00 0.00 0.00 0.00 0.00 0.00 0.00 0.00 0.00 0.00 0.00 0.00 0.00 0.00 0.00 0.00 0.00 0.00 0.00 0.00 0.00 0.01 0.01 0.01 0.01 0.00 0.00 0.01 0.01 0.02 0.03 0.03 0.03 0.03 0.04 0.04 0.05 0.07 0.10 0.11 0.11 0.08 0.07 0.07 0.08 0.07 0.08 0.08 0.08 0.07 0.07 0.06 0.05 0.05
0.00 0.00 0.00 0.00 0.00 0.00 0.00 0.00 0.00 0.00 0.00 0.00 0.00 0.00 0.00 0.00 0.00 0.00 0.00 0.00 0.00 0.00 0.00 0.00 0.00 0.00 0.00 0.00 0.00 0.00 0.00 0.00 0.00 0.00 0.01 0.01 0.01 0.01 0.01 0.01 0.01 0.01 0.01 0.01 0.02 0.02 0.02 0.02 0.03 0.03 0.04 0.05 0.08 0.10 0.12 0.11 0.11 0.10 0.09 0.08 0.08 0.08 0.08 0.08 0.08 0.07 0.07 0.07 0.08
0.00 0.00 0.00 0.00 0.00 0.00 0.00 0.00 0.00 0.00 0.00 0.00 0.00 0.00 0.00 0.00 0.00 0.00 0.00 0.00 0.00 0.00 0.00 0.00 0.00 0.00 0.00 0.00 0.00 0.00 0.00 0.00 0.00 0.01 0.01 0.01 0.01 0.01 0.01 0.01 0.01 0.01 0.01 0.01 0.01 0.01 0.02 0.03 0.04 0.04 0.05 0.07 0.09 0.11 0.12 0.12 0.12 0.11 0.10 0.07 0.05 0.05 0.05 0.05 0.05 0.04 0.04 0.04 0.03
0.00 0.00 0.00 0.00 0.00 0.00 0.00 0.00 0.00 0.00 0.00 0.00 0.00 0.00 0.00 0.00 0.00 0.00 0.00 0.00 0.00 0.00 0.00 0.00 0.00 0.00 0.00 0.00 0.00 0.00 0.00 0.00 0.01 0.01 0.01 0.01 0.01 0.01 0.01 0.01 0.01 0.01 0.01 0.01 0.01 0.01 0.02 0.03 0.04 0.05 0.06 0.08 0.10 0.10 0.10 0.10 0.10 0.08 0.06 0.05 0.04 0.03 0.02 0.02 0.02 0.02 0.02 0.02 0.02
0.00 0.00 0.00 0.00 0.00 0.00 0.00 0.00 0.00 0.00 0.00 0.00 0.00 0.00 0.00 0.00 0.00 0.00 0.00 0.00 0.00 0.00 0.00 0.00 0.00 0.00 0.00 0.00 0.00 0.00 0.01 0.01 0.01 0.01 0.01 0.01 0.00 0.00 0.01 0.01 0.01 0.00 0.00 0.01 0.01 0.01 0.02 0.03 0.04 0.05 0.06 0.08 0.09 0.09 0.08 0.07 0.07 0.05 0.04 0.03 0.02 0.02 0.01 0.01 0.01 0.01 0.01 0.02 0.03
0.00 0.00 0.00 0.00 0.00 0.00 0.00 0.00 0.00 0.00 0.00 0.00 0.00 0.00 0.00 0.00 0.00 0.00 0.00 0.00 0.00 0.00 0.00 0.00 0.00 0.00 0.00 0.00 0.00 0.01 0.01 0.02 0.01 0.01 0.01 0.00 0.00 0.01 0.01 0.01 0.01 0.00 0.00 0.01 0.01 0.01 0.02 0.02 0.03 0.04 0.06 0.09 0.09 0.08 0.07 0.06 0.05 0.04 0.03 0.03 0.02 0.02 0.01 0.01 0.01 0.01 0.02 0.02 0.03
0.00 0.00 0.00 0.00 0.00 0.00 0.00 0.00 0.00 0.00 0.00 0.00 0.00 0.00 0.00 0.00 0.00 0.00 0.00 0.00 0.00 0.00 0.00 0.00 0.00 0.00 0.00 0.01 0.01 0.01 0.01 0.01 0.01 0.01 0.01 0.00 0.01 0.01 0.01 0.01 0.01 0.00 0.00 0.01 0.01 0.01 0.02 0.02 0.03 0.04 0.06 0.10 0.09 0.08 0.07 0.06 0.06 0.05 0.04 0.03 0.02 0.02 0.01 0.01 0.01 0.01 0.02 0.03 0.03
0.00 0.00 0.00 0.00 0.00 0.00 0.00 0.00 0.00 0.00 0.00 0.00 0.00 0.00 0.00 0.00 0.00 0.00 0.00 0.00 0.00 0.00 0.00 0.00 0.00 0.00 0.01 0.01 0.01 0.01 0.00 0.00 0.00 0.01 0.01 0.01 0.01 0.01 0.02 0.02 0.01 0.00 0.00 0.00 0.00 0.01 0.01 0.02 0.03 0.04 0.06 0.10 0.10 0.09 0.07 0.07 0.06 0.05 0.04 0.03 0.03 0.02 0.02 0.01 0.02 0.02 0.02 0.03 0.03
0.00 0.00 0.00 0.00 0.00 0.00 0.00 0.00 0.00 0.00 0.00 0.00 0.00 0.00 0.00 0.00 0.00 0.00 0.00 0.00 0.00 0.00 0.00 0.00 0.01 0.01 0.00 0.00 0.00 0.00 0.00 0.00 0.00 0.01 0.01 0.01 0.01 0.01 0.01 0.02 0.01 0.01 0.00 0.00 0.00 0.00 0.01 0.01 0.02 0.04 0.07 0.12 0.11 0.10 0.09 0.08 0.06 0.05 0.04 0.03 0.03 0.02 0.02 0.02 0.02 0.02 0.02 0.03 0.03
0.00 0.00 0.00 0.00 0.00 0.00 0.00 0.00 0.00 0.00 0.00 0.00 0.00 0.00 0.00 0.00 0.00 0.00 0.00 0.00 0.00 0.00 0.00 0.01 0.01 0.01 0.01 0.01 0.01 0.00 0.00 0.00 0.00 0.01 0.01 0.01 0.01 0.01 0.01 0.02 0.01 0.01 0.00 0.00 0.00 0.00 0.01 0.01 0.02 0.03 0.07 0.13 0.13 0.12 0.10 0.11 0.07 0.05 0.04 0.03 0.03 0.03 0.02 0.02 0.02 0.02 0.03 0.02 0.03
0.00 0.00 0.00 0.00 0.00 0.00 0.00 0.00 0.00 0.00 0.00 0.00 0.00 0.00 0.00 0.00 0.00 0.00 0.00 0.00 0.00 0.00 0.00 0.00 0.00 0.00 0.01 0.01 0.01 0.01 0.01 0.01 0.00 0.00 0.01 0.01 0.01 0.01 0.01 0.01 0.01 0.00 0.00 0.00 0.00 0.00 0.01 0.01 0.02 0.04 0.07 0.12 0.13 0.12 0.12 0.12 0.10 0.08 0.06 0.05 0.04 0.04 0.03 0.03 0.03 0.04 0.04 0.04 0.03
0.00 0.00 0.00 0.00 0.00 0.00 0.00 0.00 0.00 0.00 0.00 0.00 0.00 0.00 0.00 0.00 0.00 0.00 0.00 0.00 0.00 0.00 0.00 0.00 0.01 0.01 0.01 0.01 0.01 0.01 0.01 0.01 0.01 0.01 0.00 0.00 0.00 0.00 0.00 0.00 0.00 0.00 0.00 0.00 0.00 0.00 0.01 0.02 0.03 0.05 0.09 0.13 0.12 0.14 0.15 0.17 0.15 0.12 0.09 0.07 0.05 0.05 0.06 0.04 0.04 0.05 0.05 0.05 0.05
MSLP
1023.18 1023.20 1023.18 1023.12 1023.02 1022.96 1022.86 1022.74 1022.62 1022.46 1022.36 1022.30 1022.24 1022.18 1022.12 1022.08 1022.02 1021.90 1021.80 1021.74 1021.68 1021.56 1021.42 1021.34 1021.20 1021.08 1020.98 1020.92 1020.92 1020.84 1020.70 1020.64 1020.58 1020.48 1020.34 1020.20 1020.08 1019.96 1019.84 1019.74 1019.62 1019.48 1019.36 1019.24 1019.12 1018.98 1018.84 1018.74 1018.64 1018.48 1018.30 1018.06 1017.84 1017.62 1017.42 1017.30 1017.18 1017.02 1016.84 1016.68 1016.52 1016.34 1016.20 1016.06 1015.86 1015.70 1015.62 1015.48 1015.36
1023.08 1023.06 1022.98 1022.90 1022.80 1022.74 1022.68 1022.56 1022.40 1022.26 1022.18 1022.12 1022.06 1022.02 1021.96 1021.92 1021.84 1021.74 1021.64 1021.56 1021.48 1021.40 1021.26 1021.14 1021.06 1020.98 1020.90 1020.80 1020.74 1020.68 1020.58 1020.48 1020.36 1020.26 1020.14 1020.02 1019.90 1019.78 1019.64 1019.56 1019.42 1019.30 1019.18 1019.06 1018.92 1018.80 1018.64 1018.56 1018.46 1018.30 1018.06 1017.80 1017.62 1017.40 1017.18 1017.06 1016.98 1016.80 1016.58 1016.42 1016.30 1016.14 1015.96 1015.74 1015.58 1015.42 1015.30 1015.18 1015.06
1022.96 1022.92 1022.86 1022.80 1022.74 1022.68 1022.58 1022.40 1022.26 1022.14 1022.06 1021.92 1021.86 1021.84 1021.80 1021.74 1021.64 1021.58 1021.48 1021.36 1021.24 1021.20 1021.18 1021.02 1020.90 1020.84 1020.74 1020.62 1020.56 1020.48 1020.40 1020.26 1020.18 1020.06 1019.96 1019.84 1019.70 1019.56 1019.42 1019.34 1019.20 1019.08 1018.96 1018.84 1018.70 1018.56 1018.42 1018.34 1018.24 1018.06 1017.80 1017.56 1017.34 1017.12 1016.92 1016.78 1016.70 1016.56 1016.36 1016.18 1016.08 1015.92 1015.70 1015.48 1015.30 1015.18 1015.06 1014.90 1014.74
1022.90 1022.86 1022.80 1022.70 1022.62 1022.52 1022.40 1022.18 1022.02 1021.92 1021.84 1021.74 1021.68 1021.64 1021.62 1021.56 1021.48 1021.40 1021.30 1021.20 1021.14 1021.12 1021.02 1020.86 1020.74 1020.64 1020.56 1020.48 1020.36 1020.26 1020.18 1020.06 1019.96 1019.86 1019.74 1019.58 1019.46 1019.34 1019.20 1019.12 1018.98 1018.84 1018.70 1018.58 1018.48 1018.34 1018.20 1018.14 1017.98 1017.78 1017.56 1017.30 1017.08 1016.86 1016.68 1016.48 1016.40 1016.30 1016.12 1015.92 1015.84 1015.68 1015.48 1015.26 1015.12 1014.98 1014.84 1014.62 1014.48
1022.78 1022.70 1022.64 1022.56 1022.42 1022.30 1022.14 1022.02 1021.86 1021.78 1021.68 1021.58 1021.52 1021.48 1021.46 1021.40 1021.34 1021.24 1021.14 1021.08 1020.98 1020.90 1020.80 1020.70 1020.62 1020.48 1020.36 1020.26 1020.18 1020.06 1019.96 1019.86 1019.74 1019.62 1019.48 1019.36 1019.24 1019.12 1018.98 1018.86 1018.74 1018.58 1018.46 1018.34 1018.20 1018.08 1017.98 1017.90 1017.74 1017.52 1017.24 1017.02 1016.78 1016.56 1016.40 1016.26 1016.14 1016.02 1015.84 1015.68 1015.56 1015.40 1015.20 1015.02 1014.84 1014.70 1014.58 1014.40 1014.24
1022.68 1022.62 1022.48 1022.40 1022.26 1022.14 1021.98 1021.84 1021.70 1021.62 1021.56 1021.48 1021.46 1021.40 1021.34 1021.26 1021.18 1021.08 1021.02 1020.96 1020.78 1020.68 1020.62 1020.56 1020.40 1020.24 1020.12 1020.06 1019.96 1019.86 1019.74 1019.64 1019.56 1019.42 1019.30 1019.14 1018.98 1018.86 1018.74 1018.62 1018.46 1018.34 1018.20 1018.08 1017.96 1017.84 1017.74 1017.68 1017.42 1017.18 1016.92 1016.74 1016.48 1016.26 1016.08 1016.02 1015.90 1015.74 1015.56 1015.40 1015.24 1015.12 1014.96 1014.78 1014.56 1014.46 1014.34 1014.14 1013.92
1022.62 1022.52 1022.40 1022.24 1022.14 1021.98 1021.84 1021.64 1021.52 1021.46 1021.42 1021.40 1021.40 1021.34 1021.20 1021.12 1021.06 1020.98 1020.90 1020.78 1020.64 1020.52 1020.42 1020.26 1020.18 1020.06 1019.96 1019.86 1019.78 1019.68 1019.56 1019.40 1019.26 1019.18 1019.08 1018.92 1018.74 1018.62 1018.48 1018.34 1018.20 1018.08 1017.96 1017.80 1017.68 1017.56 1017.46 1017.36 1017.20 1016.90 1016.62 1016.40 1016.18 1015.92 1015.80 1015.74 1015.62 1015.46 1015.26 1015.08 1014.96 1014.84 1014.70 1014.48 1014.34 1014.20 1014.08 1013.86 1013.68
1022.48 1022.42 1022.30 1022.14 1022.02 1021.86 1021.70 1021.56 1021.42 1021.36 1021.34 1021.26 1021.24 1021.14 1021.08 1020.98 1020.90 1020.80 1020.70 1020.62 1020.48 1020.36 1020.24 1020.08 1019.98 1019.92 1019.84 1019.74 1019.62 1019.48 1019.36 1019.24 1019.08 1018.92 1018.84 1018.70 1018.56 1018.36 1018.24 1018.12 1017.96 1017.78 1017.62 1017.52 1017.40 1017.26 1017.14 1017.06 1016.92 1016.68 1016.40 1016.18 1015.92 1015.70 1015.56 1015.52 1015.40 1015.20 1015.02 1014.86 1014.70 1014.56 1014.42 1014.30 1014.14 1013.98 1013.84 1013.62 1013.42
1022.42 1022.30 1022.18 1022.02 1021.90 1021.70 1021.58 1021.46 1021.36 1021.30 1021.24 1021.14 1021.08 1020.98 1020.92 1020.86 1020.78 1020.68 1020.56 1020.42 1020.26 1020.14 1020.06 1019.92 1019.80 1019.70 1019.64 1019.56 1019.42 1019.30 1019.18 1019.06 1018.86 1018.70 1018.56 1018.46 1018.30 1018.12 1017.92 1017.84 1017.68 1017.48 1017.34 1017.24 1017.14 1017.02 1016.90 1016.78 1016.62 1016.36 1016.12 1015.90 1015.68 1015.46 1015.30 1015.24 1015.14 1014.98 1014.78 1014.58 1014.42 1014.24 1014.08 1013.96 1013.84 1013.68 1013.46 1013.26 1013.12
1022.26 1022.14 1022.06 1021.90 1021.74 1021.58 1021.46 1021.34 1021.24 1021.18 1021.14 1021.02 1020.92 1020.84 1020.78 1020.68 1020.58 1020.48 1020.36 1020.24 1020.06 1019.96 1019.86 1019.74 1019.62 1019.52 1019.42 1019.30 1019.20 1019.06 1018.92 1018.78 1018.64 1018.48 1018.34 1018.18 1018.06 1017.86 1017.70 1017.56 1017.42 1017.24 1017.08 1016.92 1016.86 1016.78 1016.62 1016.46 1016.24 1015.98 1015.78 1015.62 1015.42 1015.24 1015.06 1014.96 1014.86 1014.68 1014.46 1014.26 1014.12 1013.92 1013.70 1013.56 1013.52 1013.36 1013.14 1012.92 1012.74
1022.18 1022.02 1021.90 1021.78 1021.58 1021.46 1021.34 1021.24 1021.12 1021.06 1020.98 1020.90 1020.78 1020.68 1020.62 1020.52 1020.40 1020.26 1020.14 1020.06 1019.92 1019.80 1019.68 1019.56 1019.46 1019.34 1019.20 1019.08 1018.92 1018.80 1018.64 1018.52 1018.40 1018.24 1018.08 1017.90 1017.74 1017.62 1017.46 1017.30 1017.14 1016.98 1016.80 1016.68 1016.58 1016.46 1016.30 1016.06 1015.84 1015.64 1015.42 1015.26 1015.14 1014.98 1014.80 1014.64 1014.56 1014.36 1014.18 1013.96 1013.80 1013.64 1013.42 1013.18 1013.12 1013.02 1012.84 1012.56 1012.36
1022.06 1021.92 1021.78 1021.62 1021.46 1021.34 1021.20 1021.14 1021.02 1020.92 1020.84 1020.78 1020.64 1020.52 1020.42 1020.34 1020.24 1020.12 1020.02 1019.90 1019.84 1019.64 1019.46 1019.34 1019.26 1019.14 1018.96 1018.84 1018.68 1018.52 1018.40 1018.26 1018.14 1018.02 1017.84 1017.64 1017.48 1017.34 1017.14 1017.02 1016.86 1016.68 1016.48 1016.36 1016.24 1016.12 1015.96 1015.70 1015.52 1015.34 1015.12 1014.96 1014.86 1014.70 1014.52 1014.36 1014.20 1014.06 1013.86 1013.64 1013.52 1013.34 1013.08 1012.86 1012.74 1012.62 1012.46 1012.24 1012.02
1021.90 1021.78 1021.64 1021.46 1021.34 1021.20 1021.08 1020.98 1020.90 1020.80 1020.74 1020.62 1020.52 1020.40 1020.26 1020.14 1020.06 1019.96 1019.86 1019.74 1019.62 1019.42 1019.24 1019.12 1019.02 1018.92 1018.78 1018.56 1018.42 1018.30 1018.18 1018.02 1017.92 1017.78 1017.58 1017.40 1017.20 1017.02 1016.84 1016.68 1016.52 1016.36 1016.18 1016.02 1015.90 1015.78 1015.62 1015.40 1015.20 1015.06 1014.86 1014.64 1014.52 1014.40 1014.24 1014.08 1013.92 1013.74 1013.56 1013.36 1013.18 1012.98 1012.78 1012.56 1012.40 1012.26 1012.12 1011.92 1011.70
1021.80 1021.68 1021.52 1021.34 1021.18 1021.06 1020.96 1020.86 1020.78 1020.68 1020.58 1020.48 1020.36 1020.20 1020.12 1019.98 1019.86 1019.78 1019.68 1019.56 1019.36 1019.20 1019.06 1018.92 1018.78 1018.64 1018.52 1018.34 1018.18 1018.02 1017.90 1017.78 1017.64 1017.48 1017.26 1017.08 1016.92 1016.78 1016.56 1016.34 1016.14 1015.98 1015.84 1015.68 1015.52 1015.42 1015.26 1015.06 1014.86 1014.70 1014.56 1014.36 1014.18 1013.98 1013.86 1013.78 1013.58 1013.40 1013.20 1013.02 1012.80 1012.62 1012.42 1012.24 1012.08 1011.96 1011.80 1011.58 1011.36
1021.64 1021.52 1021.34 1021.14 1021.02 1020.90 1020.84 1020.80 1020.68 1020.58 1020.46 1020.36 1020.18 1020.06 1019.92 1019.80 1019.68 1019.58 1019.46 1019.34 1019.18 1019.02 1018.90 1018.70 1018.52 1018.34 1018.20 1018.12 1017.98 1017.80 1017.64 1017.52 1017.40 1017.20 1016.98 1016.78 1016.58 1016.42 1016.24 1016.06 1015.84 1015.68 1015.52 1015.36 1015.18 1015.06 1014.90 1014.74 1014.56 1014.36 1014.20 1014.06 1013.84 1013.64 1013.48 1013.40 1013.20 1013.06 1012.90 1012.68 1012.48 1012.26 1012.08 1011.90 1011.78 1011.64 1011.46 1011.20 1010.98
1021.48 1021.34 1021.14 1020.96 1020.86 1020.78 1020.74 1020.70 1020.56 1020.46 1020.34 1020.18 1020.02 1019.90 1019.78 1019.62 1019.48 1019.40 1019.26 1019.14 1018.96 1018.80 1018.68 1018.52 1018.34 1018.12 1017.92 1017.84 1017.74 1017.62 1017.42 1017.24 1017.08 1016.92 1016.70 1016.46 1016.24 1016.08 1015.92 1015.78 1015.56 1015.34 1015.18 1015.02 1014.84 1014.68 1014.52 1014.40 1014.20 1014.06 1013.86 1013.64 1013.46 1013.26 1013.12 1012.96 1012.80 1012.64 1012.48 1012.34 1012.14 1011.96 1011.78 1011.56 1011.40 1011.24 1011.06 1010.86 1010.64
1021.26 1021.08 1020.90 1020.80 1020.74 1020.68 1020.64 1020.56 1020.42 1020.30 1020.18 1019.98 1019.86 1019.74 1019.62 1019.48 1019.30 1019.18 1019.06 1018.92 1018.78 1018.58 1018.40 1018.26 1018.14 1017.96 1017.74 1017.52 1017.42 1017.36 1017.20 1016.96 1016.78 1016.58 1016.40 1016.14 1015.92 1015.78 1015.58 1015.40 1015.20 1015.06 1014.90 1014.70 1014.56 1014.34 1014.14 1013.96 1013.86 1013.70 1013.52 1013.26 1013.08 1012.90 1012.70 1012.56 1012.40 1012.24 1012.06 1011.90 1011.74 1011.58 1011.40 1011.18 1011.06 1010.90 1010.70 1010.48 1010.26
1021.02 1020.84 1020.70 1020.68 1020.64 1020.58 1020.52 1020.42 1020.30 1020.18 1019.98 1019.86 1019.70 1019.56 1019.42 1019.30 1019.14 1018.98 1018.84 1018.74 1018.62 1018.42 1018.20 1017.98 1017.86 1017.78 1017.58 1017.34 1017.14 1017.06 1016.90 1016.70 1016.42 1016.20 1016.06 1015.86 1015.64 1015.46 1015.24 1015.06 1014.90 1014.74 1014.58 1014.42 1014.20 1013.98 1013.80 1013.58 1013.42 1013.26 1013.12 1012.90 1012.68 1012.46 1012.30 1012.14 1011.96 1011.80 1011.64 1011.46 1011.30 1011.18 1011.02 1010.84 1010.70 1010.56 1010.36 1010.14 1009.92
1020.80 1020.68 1020.62 1020.62 1020.52 1020.46 1020.36 1020.24 1020.12 1019.98 1019.84 1019.68 1019.52 1019.36 1019.20 1019.12 1018.98 1018.84 1018.64 1018.48 1018.40 1018.26 1018.06 1017.80 1017.58 1017.46 1017.30 1017.12 1016.90 1016.70 1016.58 1016.40 1016.14 1015.86 1015.68 1015.52 1015.34 1015.14 1014.92 1014.74 1014.56 1014.40 1014.24 1014.08 1013.84 1013.62 1013.42 1013.20 1012.98 1012.84 1012.64 1012.42 1012.24 1012.02 1011.86 1011.70 1011.56 1011.40 1011.24 1011.06 1010.92 1010.78 1010.62 1010.46 1010.36 1010.20 1010.02 1009.84 1009.58
1020.68 1020.62 1020.56 1020.48 1020.40 1020.30 1020.20 1020.08 1019.92 1019.78 1019.64 1019.48 1019.34 1019.18 1019.02 1018.90 1018.78 1018.64 1018.46 1018.24 1018.08 1017.96 1017.80 1017.62 1017.36 1017.14 1016.96 1016.80 1016.62 1016.42 1016.20 1016.06 1015.84 1015.56 1015.30 1015.12 1014.98 1014.80 1014.58 1014.42 1014.20 1014.02 1013.84 1013.70 1013.46 1013.20 1013.02 1012.80 1012.58 1012.40 1012.18 1011.98 1011.80 1011.62 1011.42 1011.26 1011.12 1010.96 1010.80 1010.64 1010.48 1010.34 1010.18 1010.02 1009.90 1009.74 1009.58 1009.42 1009.20
1020.58 1020.52 1020.42 1020.30 1020.24 1020.12 1020.02 1019.86 1019.74 1019.58 1019.42 1019.26 1019.14 1019.02 1018.84 1018.68 1018.56 1018.40 1018.20 1018.02 1017.80 1017.68 1017.52 1017.36 1017.14 1016.92 1016.70 1016.48 1016.30 1016.08 1015.86 1015.68 1015.48 1015.26 1014.98 1014.78 1014.62 1014.42 1014.24 1014.08 1013.90 1013.68 1013.46 1013.26 1013.06 1012.84 1012.62 1012.40 1012.18 1011.96 1011.78 1011.58 1011.36 1011.18 1011.02 1010.86 1010.68 1010.48 1010.34 1010.18 1010.02 1009.86 1009.70 1009.56 1009.40 1009.24 1009.06 1008.90 1008.70
1020.46 1020.36 1020.24 1020.14 1020.02 1019.90 1019.78 1019.64 1019.48 1019.36 1019.20 1019.06 1018.92 1018.78 1018.62 1018.46 1018.26 1018.08 1017.92 1017.74 1017.58 1017.40 1017.24 1017.06 1016.86 1016.64 1016.42 1016.24 1016.02 1015.78 1015.52 1015.30 1015.12 1014.92 1014.70 1014.48 1014.24 1013.98 1013.84 1013.74 1013.58 1013.36 1013.12 1012.90 1012.68 1012.42 1012.20 1011.98 1011.80 1011.58 1011.40 1011.18 1010.96 1010.78 1010.62 1010.46 1010.24 1010.06 1009.84 1009.64 1009.46 1009.30 1009.12 1008.96 1008.84 1008.68 1008.48 1008.34 1008.14
1020.30 1020.14 1020.06 1019.92 1019.84 1019.68 1019.52 1019.40 1019.26 1019.18 1019.02 1018.84 1018.68 1018.56 1018.40 1018.20 1017.98 1017.80 1017.62 1017.46 1017.30 1017.12 1016.92 1016.70 1016.56 1016.34 1016.12 1015.90 1015.70 1015.48 1015.24 1014.98 1014.74 1014.56 1014.36 1014.20 1013.96 1013.70 1013.48 1013.40 1013.26 1013.02 1012.78 1012.56 1012.34 1012.12 1011.86 1011.62 1011.36 1011.14 1010.98 1010.78 1010.52 1010.34 1010.14 1009.92 1009.74 1009.52 1009.30 1009.08 1008.84 1008.64 1008.46 1008.34 1008.20 1008.08 1007.96 1007.80 1007.68
1020.14 1019.98 1019.84 1019.70 1019.62 1019.48 1019.36 1019.26 1019.12 1018.98 1018.84 1018.68 1018.48 1018.34 1018.14 1017.92 1017.74 1017.52 1017.34 1017.14 1016.98 1016.80 1016.62 1016.42 1016.24 1016.02 1015.80 1015.62 1015.42 1015.20 1014.96 1014.70 1014.42 1014.14 1013.98 1013.84 1013.68 1013.46 1013.20 1013.06 1012.90 1012.64 1012.42 1012.18 1011.96 1011.74 1011.48 1011.24 1010.92 1010.68 1010.48 1010.30 1010.06 1009.80 1009.58 1009.40 1009.20 1008.98 1008.74 1008.48 1008.24 1008.06 1007.90 1007.74 1007.62 1007.52 1007.40 1007.30 1007.18
1019.96 1019.84 1019.68 1019.56 1019.46 1019.36 1019.20 1019.08 1018.92 1018.78 1018.62 1018.46 1018.30 1018.12 1017.90 1017.70 1017.48 1017.30 1017.08 1016.86 1016.68 1016.52 1016.34 1016.12 1015.92 1015.74 1015.52 1015.30 1015.06 1014.86 1014.64 1014.42 1014.18 1013.90 1013.64 1013.46 1013.26 1013.14 1012.96 1012.70 1012.48 1012.26 1012.02 1011.74 1011.46 1011.20 1010.96 1010.74 1010.52 1010.30 1010.06 1009.80 1009.58 1009.30 1009.02 1008.78 1008.62 1008.42 1008.18 1007.92 1007.70 1007.52 1007.34 1007.18 1007.06 1006.96 1006.90 1006.84 1006.70
1019.80 1019.68 1019.56 1019.40 1019.30 1019.18 1019.06 1018.90 1018.78 1018.62 1018.42 1018.24 1018.06 1017.84 1017.64 1017.46 1017.24 1017.02 1016.84 1016.64 1016.42 1016.24 1016.06 1015.86 1015.64 1015.46 1015.20 1014.96 1014.70 1014.52 1014.30 1014.08 1013.92 1013.70 1013.46 1013.18 1012.92 1012.78 1012.62 1012.40 1012.14 1011.90 1011.58 1011.30 1011.02 1010.78 1010.56 1010.30 1010.12 1009.90 1009.68 1009.42 1009.14 1008.86 1008.58 1008.26 1008.06 1007.86 1007.68 1007.48 1007.30 1007.12 1006.90 1006.70 1006.58 1006.46 1006.36 1006.24 1006.14
1019.64 1019.52 1019.40 1019.24 1019.12 1018.98 1018.86 1018.70 1018.56 1018.40 1018.20 1018.02 1017.84 1017.62 1017.40 1017.18 1016.98 1016.78 1016.58 1016.40 1016.18 1015.96 1015.78 1015.58 1015.42 1015.18 1014.92 1014.64 1014.42 1014.20 1013.98 1013.80 1013.64 1013.42 1013.20 1012.98 1012.70 1012.42 1012.20 1011.98 1011.74 1011.48 1011.20 1010.90 1010.62 1010.40 1010.14 1009.86 1009.62 1009.42 1009.20 1009.06 1008.80 1008.52 1008.24 1007.96 1007.68 1007.48 1007.34 1007.14 1006.96 1006.78 1006.58 1006.40 1006.20 1006.02 1005.84 1005.64 1005.48
1019.48 1019.36 1019.20 1019.08 1018.96 1018.84 1018.64 1018.52 1018.36 1018.20 1018.02 1017.80 1017.62 1017.40 1017.18 1016.96 1016.78 1016.58 1016.36 1016.14 1015.92 1015.74 1015.56 1015.34 1015.12 1014.90 1014.68 1014.42 1014.18 1013.96 1013.78 1013.56 1013.36 1013.14 1012.92 1012.68 1012.42 1012.12 1011.80 1011.52 1011.26 1011.02 1010.78 1010.48 1010.20 1009.96 1009.70 1009.42 1009.18 1008.96 1008.78 1008.58 1008.40 1008.18 1007.92 1007.68 1007.42 1007.20 1006.98 1006.78 1006.58 1006.40 1006.24 1006.02 1005.78 1005.52 1005.26 1005.02 1004.86
1019.36 1019.24 1019.08 1018.98 1018.84 1018.64 1018.46 1018.34 1018.18 1017.96 1017.78 1017.58 1017.34 1017.12 1016.92 1016.74 1016.56 1016.36 1016.18 1015.96 1015.78 1015.56 1015.34 1015.12 1014.84 1014.62 1014.42 1014.20 1013.92 1013.70 1013.52 1013.30 1013.08 1012.86 1012.62 1012.30 1011.98 1011.70 1011.42 1011.12 1010.86 1010.58 1010.30 1010.08 1009.84 1009.56 1009.30 1009.02 1008.78 1008.56 1008.36 1008.20 1008.12 1007.92 1007.64 1007.40 1007.12 1006.90 1006.64 1006.42 1006.20 1006.02 1005.78 1005.48 1005.20 1004.92 1004.68 1004.48 1004.34
1019.26 1019.14 1018.98 1018.86 1018.68 1018.46 1018.30 1018.12 1017.96 1017.74 1017.52 1017.30 1017.08 1016.90 1016.70 1016.52 1016.30 1016.12 1015.96 1015.74 1015.56 1015.34 1015.12 1014.90 1014.64 1014.40 1014.18 1013.96 1013.74 1013.48 1013.24 1012.96 1012.78 1012.52 1012.24 1011.92 1011.58 1011.26 1010.96 1010.70 1010.46 1010.18 1009.92 1009.70 1009.46 1009.20 1008.96 1008.68 1008.46 1008.24 1008.06 1007.90 1007.78 1007.58 1007.34 1007.06 1006.84 1006.56 1006.26 1005.96 1005.70 1005.46 1005.20 1004.92 1004.70 1004.46 1004.24 1004.06 1003.90
1019.14 1019.06 1018.86 1018.68 1018.52 1018.34 1018.12 1017.90 1017.70 1017.52 1017.30 1017.08 1016.90 1016.70 1016.52 1016.34 1016.12 1015.92 1015.74 1015.56 1015.30 1015.02 1014.80 1014.64 1014.46 1014.20 1013.92 1013.70 1013.52 1013.26 1012.96 1012.64 1012.40 1012.12 1011.84 1011.52 1011.18 1010.84 1010.56 1010.34 1010.08 1009.86 1009.64 1009.40 1009.14 1008.86 1008.62 1008.36 1008.12 1007.90 1007.70 1007.52 1007.34 1007.14 1006.92 1006.64 1006.36 1006.06 1005.74 1005.46 1005.14 1004.90 1004.70 1004.52 1004.26 1004.06 1003.86 1003.68 1003.52
1019.06 1018.92 1018.74 1018.56 1018.36 1018.14 1017.90 1017.68 1017.48 1017.26 1017.08 1016.90 1016.70 1016.52 1016.34 1016.12 1015.92 1015.74 1015.56 1015.36 1015.12 1014.80 1014.56 1014.36 1014.18 1013.92 1013.64 1013.36 1013.14 1012.90 1012.62 1012.30 1011.98 1011.70 1011.42 1011.14 1010.84 1010.52 1010.26 1009.98 1009.78 1009.56 1009.34 1009.08 1008.84 1008.52 1008.26 1007.98 1007.74 1007.48 1007.26 1007.06 1006.86 1006.68 1006.42 1006.14 1005.86 1005.58 1005.24 1004.92 1004.68 1004.46 1004.26 1004.08 1003.86 1003.64 1003.46 1003.34 1003.18
1018.92 1018.80 1018.64 1018.46 1018.20 1017.92 1017.68 1017.48 1017.30 1017.08 1016.90 1016.70 1016.52 1016.34 1016.14 1015.90 1015.64 1015.46 1015.26 1015.08 1014.90 1014.64 1014.40 1014.12 1013.86 1013.62 1013.34 1013.02 1012.74 1012.42 1012.14 1011.90 1011.58 1011.30 1011.06 1010.80 1010.56 1010.24 1009.92 1009.64 1009.42 1009.20 1008.98 1008.74 1008.46 1008.14 1007.86 1007.58 1007.30 1007.02 1006.80 1006.56 1006.34 1006.14 1005.92 1005.64 1005.40 1005.08 1004.78 1004.48 1004.20 1003.98 1003.84 1003.64 1003.48 1003.26 1003.08 1002.90 1002.74
1018.80 1018.64 1018.46 1018.26 1018.02 1017.74 1017.48 1017.26 1017.08 1016.92 1016.70 1016.52 1016.26 1016.12 1015.96 1015.74 1015.48 1015.20 1014.98 1014.78 1014.62 1014.40 1014.14 1013.90 1013.64 1013.36 1013.08 1012.78 1012.46 1012.12 1011.78 1011.48 1011.24 1010.98 1010.74 1010.52 1010.30 1009.98 1009.64 1009.36 1009.12 1008.90 1008.68 1008.36 1008.06 1007.70 1007.42 1007.14 1006.86 1006.58 1006.30 1006.06 1005.86 1005.68 1005.42 1005.18 1004.90 1004.62 1004.30 1004.02 1003.74 1003.52 1003.34 1003.14 1002.96 1002.78 1002.56 1002.40 1002.20
1018.64 1018.48 1018.30 1018.06 1017.84 1017.58 1017.34 1017.12 1016.90 1016.74 1016.56 1016.36 1016.08 1015.86 1015.68 1015.52 1015.34 1015.06 1014.80 1014.52 1014.30 1014.06 1013.78 1013.52 1013.26 1013.02 1012.70 1012.40 1012.14 1011.86 1011.52 1011.20 1010.90 1010.68 1010.46 1010.24 1009.98 1009.70 1009.34 1008.98 1008.74 1008.52 1008.30 1007.98 1007.62 1007.30 1007.02 1006.74 1006.46 1006.14 1005.90 1005.68 1005.48 1005.24 1004.98 1004.70 1004.40 1004.08 1003.80 1003.52 1003.26 1002.98 1002.78 1002.62 1002.42 1002.20 1002.02 1001.86 1001.68
1018.52 1018.36 1018.14 1017.86 1017.62 1017.40 1017.18 1016.98 1016.78 1016.58 1016.40 1016.18 1015.92 1015.68 1015.42 1015.20 1015.02 1014.84 1014.62 1014.34 1014.06 1013.74 1013.46 1013.14 1012.86 1012.62 1012.34 1012.06 1011.78 1011.56 1011.26 1010.98 1010.68 1010.40 1010.18 1009.96 1009.70 1009.40 1008.98 1008.62 1008.34 1008.08 1007.84 1007.58 1007.24 1006.92 1006.62 1006.34 1006.02 1005.74 1005.48 1005.26 1005.06 1004.80 1004.52 1004.26 1003.92 1003.58 1003.30 1003.02 1002.74 1002.46 1002.24 1002.06 1001.86 1001.64 1001.46 1001.26 1001.08
1018.34 1018.18 1017.98 1017.70 1017.46 1017.24 1017.06 1016.84 1016.64 1016.42 1016.18 1015.96 1015.74 1015.52 1015.26 1014.98 1014.74 1014.52 1014.30 1014.12 1013.80 1013.42 1013.06 1012.78 1012.48 1012.26 1011.98 1011.74 1011.46 1011.20 1010.98 1010.78 1010.48 1010.18 1009.86 1009.58 1009.40 1009.08 1008.68 1008.26 1007.96 1007.68 1007.42 1007.14 1006.86 1006.56 1006.20 1005.92 1005.62 1005.30 1005.06 1004.86 1004.62 1004.36 1004.12 1003.80 1003.48 1003.14 1002.84 1002.52 1002.20 1001.92 1001.70 1001.52 1001.30 1001.06 1000.86 1000.68 1000.46
1018.14 1017.98 1017.84 1017.58 1017.36 1017.12 1016.92 1016.70 1016.52 1016.30 1016.02 1015.74 1015.52 1015.30 1015.08 1014.84 1014.56 1014.24 1014.02 1013.80 1013.48 1013.12 1012.70 1012.40 1012.18 1011.96 1011.74 1011.48 1011.20 1010.90 1010.64 1010.46 1010.24 1009.92 1009.62 1009.30 1009.02 1008.78 1008.46 1008.02 1007.58 1007.26 1007.02 1006.74 1006.46 1006.14 1005.84 1005.52 1005.18 1004.90 1004.68 1004.48 1004.24 1003.96 1003.68 1003.40 1003.06 1002.70 1002.36 1002.02 1001.68 1001.40 1001.14 1000.96 1000.74 1000.48 1000.26 1000.02 999.80
1017.96 1017.80 1017.64 1017.46 1017.24 1016.98 1016.78 1016.58 1016.40 1016.14 1015.86 1015.58 1015.30 1015.06 1014.84 1014.58 1014.30 1013.98 1013.70 1013.46 1013.20 1012.90 1012.52 1012.20 1011.92 1011.70 1011.48 1011.24 1010.92 1010.56 1010.24 1010.02 1009.86 1009.64 1009.36 1009.06 1008.74 1008.46 1008.18 1007.74 1007.30 1006.92 1006.64 1006.40 1006.08 1005.74 1005.42 1005.12 1004.80 1004.52 1004.26 1004.08 1003.84 1003.58 1003.26 1002.92 1002.58 1002.20 1001.86 1001.58 1001.24 1000.86 1000.58 1000.34 1000.18 999.92 999.64 999.36 999.14
1017.80 1017.64 1017.48 1017.34 1017.12 1016.90 1016.64 1016.40 1016.18 1015.96 1015.74 1015.46 1015.14 1014.86 1014.58 1014.34 1014.02 1013.68 1013.36 1013.14 1012.92 1012.70 1012.40 1012.08 1011.74 1011.46 1011.24 1010.98 1010.64 1010.26 1009.90 1009.62 1009.48 1009.34 1009.12 1008.80 1008.46 1008.12 1007.80 1007.46 1007.06 1006.64 1006.30 1006.06 1005.74 1005.40 1005.08 1004.78 1004.46 1004.14 1003.90 1003.68 1003.46 1003.18 1002.84 1002.52 1002.12 1001.74 1001.36 1001.06 1000.74 1000.40 1000.02 999.74 999.56 999.30 999.02 998.70 998.46
1017.64 1017.48 1017.30 1017.14 1016.96 1016.78 1016.56 1016.24 1015.92 1015.68 1015.48 1015.24 1014.98 1014.68 1014.36 1014.02 1013.68 1013.36 1013.12 1012.92 1012.74 1012.56 1012.30 1011.92 1011.56 1011.24 1010.98 1010.74 1010.40 1010.02 1009.64 1009.30 1009.08 1008.92 1008.74 1008.48 1008.14 1007.80 1007.48 1007.14 1006.78 1006.36 1006.02 1005.68 1005.36 1005.08 1004.74 1004.40 1004.08 1003.74 1003.48 1003.26 1003.02 1002.74 1002.42 1002.08 1001.68 1001.26 1000.90 1000.56 1000.24 999.92 999.58 999.20 998.92 998.68 998.40 998.12 997.84
Thickness
5480 5479 5477 5476 5475 5474 5474 5473 5473 5472 5471 5470 5469 5468 5467 5465 5464 5463 5463 5461 5460 5459 5459 5458 5458 5457 5456 5454 5453 5452 5450 5450 5448 5447 5446 5445 5444 5443 5442 5440 5439 5437 5436 5435 5433 5432 5430 5429 5427 5426 5426 5426 5426 5427 5426 5425 5423 5423 5423 5422 5423 5423 5423 5423 5424 5424 5424 5424 5424
5476 5475 5474 5474 5473 5472 5471 5470 5469 5469 5468 5466 5465 5464 5463 5461 5460 5460 5458 5457 5456 5455 5454 5454 5453 5452 5451 5450 5448 5447 5446 5445 5443 5443 5441 5440 5439 5437 5436 5435 5433 5432 5430 5429 5427 5425 5423 5422 5420 5419 5419 5420 5420 5420 5419 5418 5416 5416 5415 5415 5414 5414 5415 5416 5416 5416 5416 5416 5416
5473 5472 5471 5469 5468 5467 5467 5466 5466 5465 5464 5463 5462 5460 5458 5457 5456 5455 5454 5454 5453 5451 5450 5449 5448 5448 5447 5446 5444 5443 5441 5440 5438 5437 5436 5435 5433 5432 5430 5428 5427 5425 5424 5422 5420 5418 5417 5415 5413 5412 5412 5413 5413 5413 5412 5411 5409 5408 5407 5407 5406 5405 5407 5407 5407 5407 5407 5408 5407
5470 5468 5467 5466 5464 5464 5463 5463 5463 5462 5460 5460 5458 5456 5455 5453 5452 5451 5450 5449 5448 5447 5445 5444 5444 5442 5442 5440 5439 5438 5436 5434 5433 5431 5431 5429 5428 5426 5424 5422 5421 5419 5417 5416 5413 5412 5410 5407 5406 5405 5405 5406 5405 5405 5404 5403 5401 5400 5399 5398 5397 5397 5397 5398 5398 5398 5398 5398 5398
5466 5465 5463 5462 5462 5461 5460 5460 5459 5458 5457 5455 5454 5452 5450 5449 5448 5447 5446 5444 5444 5442 5440 5440 5438 5437 5436 5435 5434 5432 5431 5429 5427 5426 5424 5423 5421 5420 5418 5416 5414 5412 5411 5409 5407 5405 5402 5400 5398 5398 5398 5398 5398 5397 5396 5395 5393 5392 5391 5389 5389 5388 5388 5388 5388 5387 5387 5388 5388
5462 5461 5460 5458 5458 5457 5457 5456 5455 5454 5453 5451 5449 5448 5446 5445 5443 5442 5441 5440 5438 5437 5436 5435 5433 5432 5431 5430 5428 5427 5425 5424 5422 5420 5419 5417 5416 5414 5412 5410 5408 5407 5404 5402 5400 5398 5395 5393 5391 5391 5390 5390 5390 5390 5388 5386 5384 5383 5382 5381 5380 5379 5378 5378 5377 5376 5375 5377 5377
5459 5457 5456 5455 5454 5453 5453 5452 5451 5450 5448 5447 5445 5443 5441 5440 5438 5437 5435 5434 5434 5432 5431 5429 5428 5426 5425 5424 5423 5421 5420 5418 5417 5414 5412 5411 5409 5407 5406 5404 5402 5400 5397 5395 5393 5390 5387 5385 5383 5384 5383 5382 5381 5381 5379 5377 5375 5374 5373 5372 5370 5369 5367 5367 5366 5364 5364 5365 5365
5455 5453 5452 5451 5450 5449 5448 5448 5447 5445 5444 5442 5440 5439 5437 5435 5434 5432 5431 5430 5428 5427 5426 5425 5423 5421 5419 5418 5417 5415 5414 5412 5411 5408 5407 5405 5403 5401 5399 5397 5395 5393 5390 5388 5385 5382 5380 5377 5376 5375 5374 5373 5372 5371 5370 5367 5365 5364 5362 5360 5359 5357 5356 5355 5354 5353 5352 5352 5352
5451 5449 5449 5447 5446 5446 5445 5444 5443 5441 5439 5438 5436 5434 5433 5430 5429 5427 5426 5425 5424 5422 5421 5420 5418 5416 5414 5412 5411 5409 5408 5406 5404 5403 5401 5398 5396 5394 5392 5390 5388 5386 5383 5380 5377 5374 5372 5369 5368 5366 5365 5363 5362 5361 5359 5356 5354 5353 5351 5349 5348 5346 5345 5343 5342 5341 5340 5339 5339
5447 5446 5445 5444 5442 5441 5441 5440 5439 5436 5435 5434 5432 5430 5428 5427 5425 5423 5421 5420 5420 5418 5416 5414 5413 5411 5409 5407 5405 5403 5401 5399 5397 5395 5393 5392 5389 5387 5385 5382 5380 5378 5376 5373 5369 5366 5364 5361 5359 5358 5357 5354 5352 5350 5348 5345 5343 5341 5339 5337 5335 5334 5334 5332 5329 5328 5327 5327 5326
5443 5442 5441 5440 5439 5438 5437 5436 5435 5433 5432 5430 5428 5427 5425 5422 5420 5418 5417 5415 5414 5413 5411 5409 5407 5405 5403 5401 5399 5397 5395 5392 5390 5388 5386 5384 5382 5380 5377 5374 5372 5370 5367 5364 5361 5357 5355 5353 5351 5349 5347 5345 5342 5339 5337 5334 5331 5328 5326 5324 5322 5321 5320 5319 5316 5315 5314 5314 5313
5440 5438 5437 5436 5436 5435 5434 5432 5431 5430 5428 5426 5424 5422 5420 5418 5415 5414 5412 5410 5409 5407 5406 5404 5401 5399 5397 5395 5392 5390 5388 5385 5383 5380 5378 5376 5374 5372 5369 5366 5364 5361 5359 5356 5352 5349 5346 5344 5341 5339 5337 5334 5331 5327 5324 5322 5318 5315 5313 5311 5309 5307 5307 5306 5304 5303 5302 5301 5302
5436 5435 5434 5433 5432 5431 5430 5429 5427 5426 5424 5422 5419 5418 5415 5414 5412 5409 5407 5405 5403 5402 5401 5399 5396 5393 5391 5388 5386 5383 5380 5377 5375 5372 5370 5367 5366 5364 5361 5359 5356 5353 5350 5348 5344 5340 5336 5334 5331 5328 5325 5322 5319 5315 5311 5308 5305 5302 5300 5298 5296 5295 5294 5294 5293 5292 5291 5290 5291
5433 5432 5431 5430 5429 5428 5426 5425 5423 5421 5419 5417 5415 5413 5411 5409 5407 5404 5402 5399 5398 5396 5395 5392 5390 5387 5384 5381 5379 5376 5372 5369 5366 5364 5362 5360 5358 5355 5353 5351 5348 5344 5342 5338 5334 5330 5327 5324 5320 5316 5313 5310 5307 5303 5299 5296 5293 5291 5288 5287 5286 5285 5284 5284 5283 5283 5282 5282 5282
5429 5428 5427 5427 5426 5424 5422 5420 5418 5417 5415 5413 5411 5409 5407 5404 5402 5399 5397 5394 5392 5390 5388 5386 5383 5381 5377 5374 5371 5368 5365 5361 5358 5356 5354 5352 5350 5347 5344 5342 5339 5335 5332 5328 5324 5320 5316 5313 5309 5305 5300 5297 5294 5291 5288 5286 5283 5280 5278 5277 5276 5276 5275 5275 5275 5275 5274 5274 5274
5426 5426 5424 5424 5422 5420 5418 5416 5414 5412 5410 5408 5406 5404 5401 5398 5396 5393 5391 5388 5386 5383 5381 5378 5376 5374 5371 5366 5362 5359 5356 5354 5351 5348 5346 5344 5342 5339 5335 5332 5329 5326 5322 5317 5313 5310 5306 5302 5297 5293 5289 5286 5283 5281 5279 5277 5274 5273 5271 5270 5269 5268 5268 5268 5268 5268 5268 5268 5268
5424 5423 5422 5420 5418 5416 5414 5411 5409 5407 5405 5403 5401 5398 5395 5393 5390 5387 5385 5382 5379 5377 5373 5371 5368 5365 5363 5360 5356 5352 5348 5346 5344 5341 5338 5336 5333 5330 5327 5323 5319 5315 5311 5306 5302 5299 5295 5291 5287 5283 5279 5277 5274 5272 5270 5269 5268 5266 5265 5264 5263 5262 5262 5262 5262 5262 5261 5262 5262
5421 5420 5418 5416 5414 5412 5409 5407 5404 5402 5400 5397 5395 5392 5389 5387 5384 5381 5379 5376 5372 5369 5367 5363 5360 5357 5354 5352 5349 5345 5341 5338 5336 5334 5330 5327 5324 5320 5317 5313 5309 5305 5300 5296 5292 5288 5285 5281 5278 5274 5271 5269 5267 5266 5264 5262 5261 5261 5260 5259 5258 5258 5257 5257 5257 5256 5256 5256 5257
5418 5417 5414 5412 5409 5407 5405 5402 5400 5397 5394 5391 5390 5386 5384 5381 5378 5375 5372 5369 5365 5361 5358 5356 5353 5351 5347 5345 5342 5339 5335 5331 5329 5326 5322 5318 5315 5311 5307 5304 5299 5295 5290 5286 5283 5279 5276 5273 5270 5268 5265 5263 5261 5260 5259 5257 5257 5256 5255 5254 5254 5253 5253 5253 5252 5252 5251 5252 5253
5414 5412 5410 5407 5405 5402 5400 5397 5394 5392 5389 5386 5383 5381 5378 5375 5372 5368 5366 5362 5359 5355 5351 5348 5346 5344 5341 5338 5334 5332 5329 5324 5321 5318 5315 5311 5306 5302 5298 5294 5290 5286 5281 5277 5274 5271 5268 5266 5263 5262 5260 5258 5256 5255 5255 5253 5252 5252 5251 5251 5250 5250 5249 5249 5249 5248 5249 5248 5249
5410 5407 5405 5403 5400 5397 5395 5392 5389 5386 5383 5381 5378 5375 5373 5370 5366 5363 5360 5356 5353 5350 5346 5342 5340 5337 5334 5331 5328 5325 5322 5318 5314 5311 5307 5303 5298 5294 5289 5285 5281 5277 5274 5270 5268 5265 5262 5260 5258 5256 5255 5254 5252 5251 5250 5250 5249 5249 5248 5248 5247 5247 5247 5247 5247 5247 5246 5247 5247
5405 5402 5400 5398 5395 5392 5389 5387 5384 5381 5378 5375 5373 5370 5367 5364 5361 5358 5354 5351 5347 5344 5340 5337 5333 5330 5327 5324 5321 5318 5315 5312 5307 5302 5298 5295 5291 5287 5282 5277 5273 5270 5267 5264 5262 5260 5258 5256 5254 5252 5251 5250 5248 5248 5247 5246 5246 5246 5246 5246 5246 5246 5246 5245 5245 5245 5245 5245 5245
5401 5398 5396 5393 5391 5388 5385 5382 5379 5376 5373 5371 5368 5365 5362 5359 5356 5353 5350 5346 5342 5339 5335 5332 5328 5324 5321 5318 5314 5311 5307 5304 5300 5295 5291 5286 5283 5279 5275 5270 5266 5263 5261 5259 5257 5256 5253 5252 5250 5249 5248 5247 5246 5246 5245 5244 5244 5244 5244 5245 5245 5245 5245 5245 5245 5244 5243 5244 5243
5396 5394 5391 5389 5386 5382 5379 5376 5373 5371 5368 5366 5363 5360 5357 5354 5351 5347 5344 5341 5337 5333 5329 5326 5322 5318 5315 5312 5308 5304 5300 5296 5293 5288 5284 5280 5275 5272 5269 5265 5261 5258 5257 5255 5253 5251 5249 5248 5247 5246 5245 5244 5244 5244 5243 5243 5243 5243 5243 5243 5243 5244 5245 5244 5244 5244 5243 5242 5241
5392 5389 5387 5384 5380 5377 5374 5371 5368 5366 5363 5360 5358 5355 5352 5349 5346 5343 5339 5336 5333 5328 5325 5321 5317 5313 5309 5306 5302 5298 5293 5288 5284 5281 5277 5274 5269 5266 5262 5260 5257 5255 5253 5252 5251 5250 5248 5246 5245 5244 5242 5241 5242 5242 5242 5242 5242 5242 5242 5242 5242 5242 5243 5243 5243 5243 5241 5240 5240
5388 5385 5382 5378 5375 5372 5369 5366 5363 5361 5358 5356 5353 5350 5347 5344 5341 5337 5334 5331 5327 5323 5319 5315 5312 5308 5304 5300 5296 5292 5287 5282 5277 5273 5270 5267 5264 5261 5258 5255 5254 5252 5251 5250 5249 5248 5247 5245 5244 5242 5240 5239 5238 5239 5239 5239 5240 5240 5240 5240 5241 5240 5240 5241 5241 5241 5240 5239 5239
5382 5379 5376 5373 5370 5367 5365 5362 5359 5356 5353 5351 5348 5345 5342 5339 5335 5332 5328 5325 5321 5318 5313 5309 5305 5302 5298 5294 5290 5286 5281 5277 5271 5267 5263 5260 5258 5257 5255 5253 5251 5250 5249 5248 5247 5246 5245 5243 5243 5241 5239 5237 5236 5236 5237 5237 5238 5238 5239 5238 5238 5238 5238 5238 5238 5238 5239 5239 5239
5377 5374 5371 5369 5366 5363 5360 5357 5354 5351 5348 5345 5343 5340 5338 5334 5331 5326 5323 5319 5315 5311 5308 5304 5300 5296 5292 5288 5284 5279 5275 5271 5266 5262 5258 5255 5253 5253 5252 5250 5249 5248 5247 5246 5245 5244 5243 5242 5241 5240 5239 5237 5235 5234 5234 5235 5235 5236 5236 5236 5236 5236 5236 5236 5236 5237 5239 5240 5240
5371 5369 5366 5364 5361 5359 5356 5353 5350 5347 5344 5341 5339 5335 5332 5328 5325 5321 5317 5313 5310 5306 5302 5298 5294 5290 5285 5281 5276 5272 5268 5264 5261 5257 5255 5253 5251 5250 5249 5249 5248 5246 5246 5245 5243 5242 5242 5241 5240 5239 5237 5235 5233 5232 5232 5232 5233 5234 5234 5234 5235 5235 5235 5236 5237 5238 5239 5240 5240
5366 5363 5361 5359 5357 5354 5351 5348 5346 5343 5340 5337 5334 5331 5327 5324 5320 5316 5312 5308 5304 5300 5296 5291 5288 5284 5279 5275 5270 5267 5263 5259 5256 5254 5252 5250 5249 5249 5248 5247 5246 5245 5244 5243 5242 5241 5240 5239 5238 5237 5236 5234 5232 5230 5231 5232 5232 5233 5234 5235 5235 5236 5236 5236 5237 5238 5239 5240 5240
5360 5358 5356 5354 5352 5349 5347 5344 5341 5338 5335 5332 5329 5325 5322 5318 5314 5310 5306 5303 5298 5295 5291 5286 5281 5278 5274 5269 5265 5261 5258 5256 5253 5251 5250 5249 5248 5247 5247 5246 5244 5244 5242 5241 5240 5239 5238 5238 5237 5236 5235 5234 5232 5231 5231 5232 5233 5234 5235 5236 5237 5237 5237 5237 5238 5239 5240 5241 5241
5356 5353 5350 5348 5346 5344 5342 5340 5337 5334 5331 5327 5324 5320 5317 5313 5309 5305 5301 5297 5293 5289 5285 5281 5277 5272 5268 5264 5261 5258 5256 5254 5252 5250 5248 5247 5246 5245 5245 5245 5243 5242 5240 5240 5239 5238 5238 5238 5237 5237 5236 5235 5235 5233 5233 5234 5234 5235 5236 5237 5239 5239 5239 5239 5240 5241 5242 5242 5243
5351 5348 5346 5343 5342 5340 5337 5334 5332 5329 5326 5322 5319 5315 5312 5309 5305 5301 5296 5292 5287 5283 5280 5276 5272 5268 5264 5261 5258 5256 5253 5251 5250 5249 5247 5245 5244 5244 5244 5244 5243 5241 5240 5239 5238 5238 5238 5238 5238 5238 5238 5238 5237 5236 5236 5237 5237 5238 5239 5240 5241 5241 5242 5242 5243 5243 5245 5245 5246
5345 5343 5341 5338 5337 5335 5333 5330 5327 5324 5321 5318 5315 5311 5307 5303 5300 5296 5293 5288 5283 5278 5274 5271 5267 5263 5260 5257 5254 5253 5252 5250 5249 5247 5246 5244 5243 5243 5243 5243 5242 5241 5240 5239 5239 5240 5240 5240 5240 5240 5240 5240 5239 5240 5240 5240 5241 5242 5243 5244 5245 5246 5246 5246 5247 5248 5249 5250 5251
5340 5338 5336 5334 5332 5330 5328 5325 5322 5319 5316 5313 5310 5307 5303 5299 5294 5291 5287 5283 5279 5274 5271 5267 5263 5259 5256 5254 5252 5250 5249 5248 5247 5246 5245 5243 5242 5242 5243 5243 5242 5241 5240 5240 5240 5241 5242 5242 5242 5242 5243 5243 5243 5243 5244 5244 5245 5247 5248 5248 5250 5251 5251 5252 5252 5253 5254 5255 5256
5335 5333 5331 5329 5327 5325 5323 5320 5318 5314 5311 5308 5305 5302 5299 5296 5291 5286 5282 5278 5274 5271 5268 5264 5261 5257 5254 5252 5250 5249 5247 5246 5245 5245 5244 5243 5242 5242 5243 5244 5243 5243 5242 5242 5243 5244 5244 5244 5245 5246 5246 5246 5246 5247 5247 5248 5249 5251 5252 5253 5254 5255 5256 5257 5257 5258 5259 5260 5261
5330 5328 5326 5324 5322 5320 5318 5315 5312 5310 5307 5303 5300 5297 5294 5291 5287 5283 5278 5273 5269 5267 5264 5262 5259 5256 5253 5251 5250 5248 5247 5245 5244 5244 5244 5243 5243 5243 5244 5245 5246 5245 5245 5245 5245 5246 5247 5248 5249 5249 5249 5249 5250 5250 5251 5252 5253 5254 5256 5257 5258 5259 5260 5261 5261 5263 5263 5265 5265
5327 5324 5321 5319 5317 5315 5313 5310 5307 5304 5302 5299 5296 5292 5289 5285 5281 5278 5273 5269 5265 5263 5262 5259 5257 5254 5251 5249 5248 5248 5247 5245 5243 5243 5243 5243 5243 5243 5244 5246 5247 5248 5247 5247 5248 5249 5250 5251 5251 5252 5252 5252 5252 5253 5254 5255 5256 5258 5259 5260 5262 5263 5264 5265 5266 5267 5268 5270 5271
5323 5320 5316 5314 5312 5310 5308 5305 5302 5299 5297 5294 5291 5287 5284 5280 5277 5273 5269 5265 5261 5259 5258 5256 5254 5252 5250 5248 5248 5248 5248 5247 5245 5243 5243 5244 5244 5245 5245 5247 5249 5250 5250 5250 5251 5252 5253 5254 5254 5255 5255 5255 5255 5256 5257 5258 5260 5262 5263 5264 5266 5268 5270 5271 5271 5272 5274 5276 5277
5319 5316 5312 5309 5307 5305 5303 5301 5298 5295 5292 5289 5286 5283 5280 5276 5273 5269 5266 5262 5258 5255 5253 5252 5251 5250 5248 5247 5247 5248 5248 5248 5246 5245 5244 5245 5246 5247 5248 5249 5250 5252 5253 5253 5254 5254 5255 5256 5257 5258 5259 5259 5259 5260 5261 5263 5264 5266 5268 5269 5271 5273 5275 5277 5278 5278 5280 5282 5283
5314 5311 5309 5305 5303 5300 5298 5296 5294 5291 5288 5284 5281 5278 5274 5272 5269 5265 5262 5259 5255 5252 5250 5249 5249 5248 5248 5247 5247 5247 5248 5248 5248 5246 5246 5246 5248 5249 5250 5250 5252 5254 5255 5256 5257 5257 5258 5259 5260 5262 5262 5262 5263 5264 5266 5267 5269 5271 5273 5274 5276 5277 5279 5281 5283 5284 5286 5287 5289